| time (UTC) | temp C | wind direction | speed KPH | gust KPH | rain 1hr cm | rain 24hr cm | rain mn cm | humidity % | barometer mb |
| 20260510175940 | 18 | 258 | 0.0 | 0.0 | 0.00 | 0.00 | 0.00 | 77 | 1015.2 |
| 20260510175436 | 18 | 320 | 1.6 | 3.2 | 0.00 | 0.00 | 0.00 | 76 | 1015.2 |
| 20260510174931 | 18 | 4 | 4.8 | 4.8 | 0.00 | 0.00 | 0.00 | 76 | 1015.3 |
| 20260510174430 | 19 | 246 | 0.0 | 0.0 | 0.00 | 0.00 | 0.00 | 77 | 1015.1 |
| 20260510173926 | 19 | 226 | 0.0 | 0.0 | 0.00 | 0.00 | 0.00 | 76 | 1014.9 |
| 20260510173422 | 18 | 232 | 0.0 | 1.6 | 0.00 | 0.00 | 0.00 | 75 | 1015.0 |
| 20260510172918 | 18 | 247 | 0.0 | 0.0 | 0.00 | 0.00 | 0.00 | 76 | 1015.1 |
| 20260510172415 | 18 | 225 | 0.0 | 0.0 | 0.00 | 0.00 | 0.00 | 78 | 1015.3 |
| 20260510171910 | 18 | 203 | 0.0 | 0.0 | 0.00 | 0.00 | 0.00 | 78 | 1015.5 |
| 20260510171408 | 18 | 190 | 0.0 | 0.0 | 0.00 | 0.00 | 0.00 | 77 | 1015.2 |
| 20260510170905 | 18 | 253 | 0.0 | 1.6 | 0.00 | 0.00 | 0.00 | 78 | 1015.2 |
| 20260510170401 | 18 | 263 | 1.6 | 3.2 | 0.00 | 0.00 | 0.00 | 79 | 1015.5 |
| 20260510165856 | 18 | 248 | 0.0 | 1.6 | 0.00 | 0.00 | 0.00 | 78 | 1015.3 |
| 20260510165353 | 18 | 256 | 0.0 | 0.0 | 0.00 | 0.00 | 0.00 | 73 | 1015.1 |
| 20260510164850 | 18 | 252 | 0.0 | 0.0 | 0.00 | 0.00 | 0.00 | 76 | 1014.9 |
| 20260510164347 | 18 | 264 | 3.2 | 4.8 | 0.00 | 0.00 | 0.00 | 73 | 1015.1 |
| 20260510163847 | 18 | 311 | 1.6 | 1.6 | 0.00 | 0.00 | 0.00 | 76 | 1015.1 |
| 20260510163343 | 18 | 253 | 3.2 | 3.2 | 0.00 | 0.00 | 0.00 | 76 | 1014.9 |
| 20260510162838 | 18 | 241 | 0.0 | 0.0 | 0.00 | 0.00 | 0.00 | 76 | 1015.3 |
| 20260510162336 | 18 | 255 | 0.0 | 0.0 | 0.00 | 0.00 | 0.00 | 76 | 1015.3 |
| 20260510161831 | 17 | 250 | 3.2 | 3.2 | 0.00 | 0.00 | 0.00 | 78 | 1015.4 |
| 20260510161327 | 17 | 247 | 0.0 | 0.0 | 0.00 | 0.00 | 0.00 | 81 | 1015.5 |
| 20260510160824 | 18 | 252 | 0.0 | 0.0 | 0.00 | 0.00 | 0.00 | 78 | 1015.4 |
| 20260510160320 | 17 | 292 | 0.0 | 0.0 | 0.00 | 0.00 | 0.00 | 79 | 1015.5 |
| 20260510155814 | 17 | 269 | 1.6 | 3.2 | 0.00 | 0.00 | 0.00 | 80 | 1015.6 |
| 20260510155311 | 17 | 257 | 0.0 | 1.6 | 0.00 | 0.00 | 0.00 | 80 | 1015.7 |
| 20260510154802 | 17 | 260 | 3.2 | 3.2 | 0.00 | 0.00 | 0.00 | 79 | 1015.4 |
| 20260510154258 | 17 | 270 | 3.2 | 3.2 | 0.00 | 0.00 | 0.00 | 80 | 1015.2 |
| 20260510153752 | 17 | 237 | 0.0 | 1.6 | 0.00 | 0.00 | 0.00 | 78 | 1015.3 |
| 20260510153249 | 17 | 211 | 0.0 | 0.0 | 0.00 | 0.00 | 0.00 | 81 | 1015.4 |
| 20260510152745 | 17 | 199 | 1.6 | 3.2 | 0.00 | 0.00 | 0.00 | 81 | 1015.5 |
| 20260510152242 | 17 | 216 | 0.0 | 0.0 | 0.00 | 0.00 | 0.00 | 83 | 1015.4 |
| 20260510151738 | 17 | 226 | 0.0 | 0.0 | 0.00 | 0.00 | 0.00 | 84 | 1015.6 |
| 20260510151237 | 16 | 245 | 0.0 | 0.0 | 0.00 | 0.00 | 0.00 | 82 | 1015.5 |
| 20260510150727 | 16 | 273 | 0.0 | 0.0 | 0.00 | 0.00 | 0.00 | 85 | 1015.6 |
| 20260510150222 | 16 | 214 | 0.0 | 0.0 | 0.00 | 0.00 | 0.00 | 86 | 1015.6 |
| 20260510145719 | 16 | 252 | 1.6 | 1.6 | 0.00 | 0.00 | 0.00 | 86 | 1015.3 |
| 20260510145215 | 15 | 261 | 3.2 | 3.2 | 0.00 | 0.00 | 0.00 | 88 | 1015.7 |
| 20260510144711 | 15 | 315 | 3.2 | 4.8 | 0.00 | 0.00 | 0.00 | 85 | 1015.5 |
| 20260510144209 | 15 | 160 | 3.2 | 4.8 | 0.00 | 0.00 | 0.00 | 87 | 1015.8 |
| 20260510143703 | 15 | 251 | 0.0 | 1.6 | 0.00 | 0.00 | 0.00 | 89 | 1015.6 |
| 20260510143200 | 14 | 238 | 0.0 | 0.0 | 0.00 | 0.00 | 0.00 | 91 | 1015.5 |
| 20260510142656 | 14 | 265 | 4.8 | 4.8 | 0.00 | 0.00 | 0.00 | 89 | 1015.8 |
| 20260510142153 | 15 | 253 | 0.0 | 0.0 | 0.00 | 0.00 | 0.00 | 88 | 1015.4 |
| 20260510141650 | 15 | 159 | 0.0 | 0.0 | 0.00 | 0.00 | 0.00 | 90 | 1015.4 |
| 20260510141148 | 14 | 247 | 0.0 | 1.6 | 0.00 | 0.00 | 0.00 | 92 | 1015.2 |
| 20260510140644 | 13 | 245 | 0.0 | 0.0 | 0.00 | 0.00 | 0.00 | 93 | 1015.1 |
| 20260510140143 | 13 | 255 | 0.0 | 0.0 | 0.00 | 0.00 | 0.00 | 94 | 1015.5 |
| 20260510135639 | 13 | 266 | 0.0 | 0.0 | 0.00 | 0.00 | 0.00 | 95 | 1015.5 |
| 20260510135135 | 12 | 210 | 0.0 | 0.0 | 0.00 | 0.00 | 0.00 | 97 | 1015.6 |
| 20260510134632 | 12 | 258 | 1.6 | 1.6 | 0.00 | 0.00 | 0.00 | 97 | 1015.5 |
| 20260510134129 | 12 | 247 | 0.0 | 0.0 | 0.00 | 0.00 | 0.00 | 99 | 1015.6 |
| 20260510133626 | 11 | 218 | 0.0 | 0.0 | 0.00 | 0.00 | 0.00 | 99 | 1015.4 |
| 20260510133121 | 11 | 237 | 0.0 | 0.0 | 0.00 | 0.00 | 0.00 | 99 | 1015.5 |
| 20260510132618 | 11 | 237 | 0.0 | 0.0 | 0.00 | 0.00 | 0.00 | 99 | 1015.5 |
| 20260510132115 | 11 | 257 | 0.0 | 0.0 | 0.00 | 0.00 | 0.00 | 99 | 1015.5 |
| 20260510131613 | 10 | 261 | 0.0 | 0.0 | 0.00 | 0.00 | 0.00 | 99 | 1015.3 |
| 20260510131110 | 10 | 259 | 0.0 | 0.0 | 0.00 | 0.00 | 0.00 | 99 | 1015.3 |
| 20260510130606 | 10 | 278 | 0.0 | 0.0 | 0.00 | 0.00 | 0.00 | 99 | 1015.1 |
| 20260510130104 | 10 | 211 | 0.0 | 0.0 | 0.00 | 0.00 | 0.00 | 99 | 1015.3 |
| 20260510125600 | 10 | 183 | 0.0 | 0.0 | 0.00 | 0.00 | 0.00 | 99 | 1015.2 |
| 20260510125056 | 10 | 220 | 0.0 | 0.0 | 0.00 | 0.00 | 0.00 | 99 | 1015.3 |
| 20260510124553 | 10 | 207 | 0.0 | 0.0 | 0.00 | 0.00 | 0.00 | 99 | 1015.3 |
| 20260510124050 | 10 | 238 | 0.0 | 0.0 | 0.00 | 0.00 | 0.00 | 99 | 1015.2 |
| 20260510123545 | 10 | 254 | 0.0 | 0.0 | 0.00 | 0.00 | 0.00 | 99 | 1015.1 |
| 20260510123042 | 10 | 199 | 0.0 | 0.0 | 0.00 | 0.00 | 0.00 | 99 | 1015.2 |
| 20260510122537 | 10 | 195 | 0.0 | 0.0 | 0.00 | 0.00 | 0.00 | 99 | 1014.8 |
| 20260510122034 | 10 | 231 | 0.0 | 0.0 | 0.00 | 0.00 | 0.00 | 99 | 1014.9 |
| 20260510121531 | 10 | 231 | 0.0 | 0.0 | 0.00 | 0.00 | 0.00 | 99 | 1014.8 |
| 20260510121028 | 10 | 231 | 0.0 | 0.0 | 0.00 | 0.00 | 0.00 | 99 | 1014.9 |
| 20260510120526 | 10 | 244 | 0.0 | 0.0 | 0.00 | 0.00 | 0.00 | 99 | 1015.1 |
| 20260510120021 | 10 | 245 | 0.0 | 0.0 | 0.00 | 0.00 | 0.00 | 99 | 1014.8 |
| 20260510115518 | 10 | 231 | 0.0 | 0.0 | 0.00 | 0.00 | 0.00 | 99 | 1014.8 |
| 20260510115014 | 10 | 228 | 0.0 | 0.0 | 0.00 | 0.00 | 0.00 | 99 | 1014.8 |
| 20260510114511 | 10 | 170 | 0.0 | 0.0 | 0.00 | 0.00 | 0.00 | 99 | 1014.6 |
| 20260510114007 | 10 | 219 | 0.0 | 0.0 | 0.00 | 0.00 | 0.00 | 99 | 1014.9 |
| 20260510113502 | 10 | 213 | 0.0 | 0.0 | 0.00 | 0.00 | 0.00 | 99 | 1014.5 |
| 20260510113000 | 10 | 219 | 0.0 | 0.0 | 0.00 | 0.00 | 0.00 | 99 | 1014.4 |
| 20260510112456 | 10 | 220 | 0.0 | 0.0 | 0.00 | 0.00 | 0.00 | 99 | 1014.3 |
| 20260510111952 | 10 | 251 | 0.0 | 0.0 | 0.00 | 0.00 | 0.00 | 99 | 1014.3 |
| 20260510111448 | 10 | 229 | 0.0 | 0.0 | 0.00 | 0.00 | 0.00 | 99 | 1014.3 |
| 20260510110944 | 9 | 229 | 0.0 | 0.0 | 0.00 | 0.00 | 0.00 | 99 | 1014.4 |
| 20260510110436 | 9 | 229 | 0.0 | 0.0 | 0.00 | 0.00 | 0.00 | 99 | 1014.2 |
| 20260510105932 | 9 | 263 | 0.0 | 0.0 | 0.00 | 0.00 | 0.00 | 99 | 1014.2 |
| 20260510105427 | 9 | 248 | 0.0 | 0.0 | 0.00 | 0.00 | 0.00 | 99 | 1014.0 |
| 20260510104922 | 9 | 258 | 0.0 | 0.0 | 0.00 | 0.00 | 0.00 | 99 | 1013.9 |
| 20260510104419 | 9 | 224 | 0.0 | 0.0 | 0.00 | 0.00 | 0.00 | 99 | 1014.1 |
| 20260510103916 | 9 | 229 | 0.0 | 0.0 | 0.00 | 0.00 | 0.00 | 99 | 1014.1 |
| 20260510103413 | 9 | 202 | 0.0 | 0.0 | 0.00 | 0.00 | 0.00 | 99 | 1014.1 |
| 20260510102908 | 9 | 232 | 0.0 | 0.0 | 0.00 | 0.00 | 0.00 | 99 | 1014.1 |
| 20260510102404 | 9 | 232 | 0.0 | 0.0 | 0.00 | 0.00 | 0.00 | 99 | 1014.1 |
| 20260510101902 | 9 | 232 | 0.0 | 0.0 | 0.00 | 0.00 | 0.00 | 99 | 1013.9 |
| 20260510101359 | 9 | 232 | 0.0 | 0.0 | 0.00 | 0.00 | 0.00 | 99 | 1013.8 |
| 20260510100856 | 9 | 232 | 0.0 | 0.0 | 0.00 | 0.00 | 0.00 | 99 | 1014.0 |
| 20260510100353 | 9 | 232 | 0.0 | 0.0 | 0.00 | 0.00 | 0.00 | 99 | 1013.8 |
| 20260510095850 | 9 | 244 | 0.0 | 0.0 | 0.00 | 0.00 | 0.00 | 99 | 1013.9 |
| 20260510095344 | 9 | 224 | 0.0 | 0.0 | 0.00 | 0.00 | 0.00 | 99 | 1013.7 |
| 20260510094844 | 9 | 260 | 0.0 | 0.0 | 0.00 | 0.00 | 0.00 | 99 | 1013.9 |
| 20260510094339 | 9 | 271 | 0.0 | 0.0 | 0.00 | 0.00 | 0.00 | 99 | 1013.6 |
| 20260510093836 | 9 | 211 | 0.0 | 0.0 | 0.00 | 0.00 | 0.00 | 99 | 1013.7 |
| 20260510093332 | 9 | 307 | 0.0 | 0.0 | 0.00 | 0.00 | 0.00 | 99 | 1013.6 |
| 20260510092828 | 9 | 220 | 0.0 | 0.0 | 0.00 | 0.00 | 0.00 | 99 | 1013.8 |
| 20260510092324 | 9 | 221 | 0.0 | 0.0 | 0.00 | 0.00 | 0.00 | 99 | 1013.7 |
| 20260510091820 | 9 | 10 | 0.0 | 0.0 | 0.00 | 0.00 | 0.00 | 99 | 1013.6 |
| 20260510091318 | 8 | 217 | 0.0 | 0.0 | 0.00 | 0.00 | 0.00 | 99 | 1013.5 |
| 20260510090814 | 8 | 201 | 0.0 | 0.0 | 0.00 | 0.00 | 0.00 | 99 | 1013.8 |
| 20260510090311 | 8 | 202 | 0.0 | 0.0 | 0.00 | 0.00 | 0.00 | 99 | 1013.8 |
| 20260510085807 | 9 | 221 | 0.0 | 0.0 | 0.00 | 0.00 | 0.00 | 99 | 1013.9 |
| 20260510085307 | 9 | 221 | 0.0 | 0.0 | 0.00 | 0.00 | 0.00 | 99 | 1013.9 |
| 20260510084803 | 9 | 207 | 0.0 | 0.0 | 0.00 | 0.00 | 0.00 | 99 | 1013.8 |
| 20260510084259 | 9 | 201 | 0.0 | 0.0 | 0.00 | 0.00 | 0.00 | 99 | 1014.1 |
| 20260510083756 | 9 | 209 | 0.0 | 0.0 | 0.00 | 0.00 | 0.00 | 99 | 1013.8 |
| 20260510083253 | 9 | 188 | 0.0 | 0.0 | 0.00 | 0.00 | 0.00 | 99 | 1013.9 |
| 20260510082749 | 9 | 186 | 0.0 | 0.0 | 0.00 | 0.00 | 0.00 | 99 | 1013.8 |
| 20260510082245 | 9 | 196 | 0.0 | 0.0 | 0.00 | 0.00 | 0.00 | 99 | 1014.1 |
| 20260510081744 | 9 | 215 | 0.0 | 0.0 | 0.00 | 0.00 | 0.00 | 99 | 1014.0 |
| 20260510081241 | 9 | 205 | 0.0 | 0.0 | 0.00 | 0.00 | 0.00 | 99 | 1013.9 |
| 20260510080736 | 9 | 231 | 0.0 | 0.0 | 0.00 | 0.00 | 0.00 | 99 | 1014.2 |
| 20260510080232 | 9 | 249 | 0.0 | 0.0 | 0.00 | 0.00 | 0.00 | 99 | 1014.3 |
| 20260510075729 | 9 | 247 | 0.0 | 0.0 | 0.00 | 0.00 | 0.00 | 99 | 1014.3 |
| 20260510075227 | 9 | 247 | 0.0 | 0.0 | 0.00 | 0.00 | 0.00 | 99 | 1014.3 |
| 20260510074724 | 9 | 232 | 0.0 | 0.0 | 0.00 | 0.00 | 0.00 | 99 | 1014.1 |
| 20260510074220 | 9 | 247 | 0.0 | 0.0 | 0.00 | 0.00 | 0.00 | 99 | 1014.1 |
| 20260510073716 | 9 | 247 | 0.0 | 0.0 | 0.00 | 0.00 | 0.00 | 99 | 1014.1 |
| 20260510073212 | 9 | 251 | 0.0 | 0.0 | 0.00 | 0.00 | 0.00 | 99 | 1014.0 |
| 20260510072708 | 9 | 252 | 0.0 | 1.6 | 0.00 | 0.00 | 0.00 | 99 | 1014.2 |
| 20260510072205 | 9 | 263 | 1.6 | 3.2 | 0.00 | 0.00 | 0.00 | 99 | 1013.9 |
| 20260510071701 | 9 | 242 | 0.0 | 0.0 | 0.00 | 0.00 | 0.00 | 99 | 1013.8 |
| 20260510071158 | 9 | 246 | 0.0 | 0.0 | 0.00 | 0.00 | 0.00 | 99 | 1013.6 |
| 20260510070656 | 9 | 221 | 0.0 | 0.0 | 0.00 | 0.00 | 0.00 | 99 | 1013.5 |
| 20260510070153 | 9 | 217 | 0.0 | 0.0 | 0.00 | 0.00 | 0.00 | 99 | 1013.6 |
| 20260510065649 | 9 | 225 | 0.0 | 0.0 | 0.00 | 0.00 | 0.00 | 99 | 1013.5 |
| 20260510065145 | 9 | 217 | 0.0 | 0.0 | 0.00 | 0.00 | 0.00 | 99 | 1013.4 |
| 20260510064642 | 9 | 220 | 0.0 | 0.0 | 0.00 | 0.00 | 0.00 | 99 | 1013.7 |
| 20260510064138 | 9 | 238 | 0.0 | 0.0 | 0.00 | 0.00 | 0.00 | 99 | 1013.8 |
| 20260510063636 | 9 | 238 | 0.0 | 0.0 | 0.00 | 0.00 | 0.00 | 99 | 1013.8 |
| 20260510063132 | 9 | 238 | 0.0 | 0.0 | 0.00 | 0.00 | 0.00 | 99 | 1013.6 |
| 20260510062628 | 9 | 238 | 0.0 | 0.0 | 0.00 | 0.00 | 0.00 | 99 | 1013.9 |
| 20260510062124 | 9 | 238 | 0.0 | 0.0 | 0.00 | 0.00 | 0.00 | 99 | 1013.8 |
| 20260510061620 | 9 | 238 | 0.0 | 0.0 | 0.00 | 0.00 | 0.00 | 99 | 1014.0 |
| 20260510061118 | 9 | 233 | 0.0 | 0.0 | 0.00 | 0.00 | 0.00 | 99 | 1013.9 |
| 20260510060613 | 9 | 222 | 0.0 | 0.0 | 0.00 | 0.00 | 0.00 | 99 | 1013.8 |
| 20260510060110 | 9 | 222 | 0.0 | 0.0 | 0.00 | 0.00 | 0.00 | 99 | 1013.7 |
| 20260510055606 | 9 | 222 | 0.0 | 0.0 | 0.00 | 0.00 | 0.00 | 99 | 1013.7 |
| 20260510055104 | 9 | 226 | 0.0 | 0.0 | 0.00 | 0.00 | 0.00 | 99 | 1013.4 |
| 20260510054600 | 10 | 196 | 0.0 | 0.0 | 0.00 | 0.00 | 0.00 | 99 | 1013.6 |
| 20260510054055 | 9 | 211 | 0.0 | 0.0 | 0.00 | 0.00 | 0.00 | 99 | 1013.5 |
| 20260510053555 | 9 | 241 | 0.0 | 0.0 | 0.00 | 0.00 | 0.00 | 99 | 1013.5 |
| 20260510053052 | 9 | 279 | 0.0 | 0.0 | 0.00 | 0.00 | 0.00 | 99 | 1013.5 |
| 20260510052542 | 9 | 9 | 0.0 | 0.0 | 0.00 | 0.00 | 0.00 | 99 | 1013.4 |
| 20260510052038 | 9 | 225 | 0.0 | 0.0 | 0.00 | 0.00 | 0.00 | 99 | 1013.3 |
| 20260510051534 | 10 | 266 | 0.0 | 0.0 | 0.00 | 0.00 | 0.00 | 99 | 1013.4 |
| 20260510051031 | 9 | 228 | 0.0 | 0.0 | 0.00 | 0.00 | 0.00 | 99 | 1013.6 |
| 20260510050528 | 9 | 226 | 0.0 | 0.0 | 0.00 | 0.00 | 0.00 | 99 | 1013.4 |
| 20260510050025 | 9 | 236 | 0.0 | 0.0 | 0.00 | 0.00 | 0.00 | 99 | 1013.7 |
| 20260510045522 | 9 | 189 | 0.0 | 0.0 | 0.00 | 0.00 | 0.00 | 99 | 1013.7 |
| 20260510045018 | 9 | 246 | 0.0 | 0.0 | 0.00 | 0.00 | 0.00 | 99 | 1013.5 |
| 20260510044515 | 9 | 208 | 0.0 | 0.0 | 0.00 | 0.00 | 0.00 | 99 | 1013.5 |
| 20260510044014 | 9 | 242 | 0.0 | 0.0 | 0.00 | 0.00 | 0.00 | 99 | 1013.6 |
| 20260510043513 | 9 | 201 | 0.0 | 0.0 | 0.00 | 0.00 | 0.00 | 99 | 1013.6 |
| 20260510043009 | 10 | 215 | 0.0 | 0.0 | 0.00 | 0.00 | 0.00 | 99 | 1013.9 |
| 20260510042503 | 10 | 213 | 0.0 | 0.0 | 0.00 | 0.00 | 0.00 | 99 | 1013.9 |
| 20260510041959 | 10 | 211 | 0.0 | 0.0 | 0.00 | 0.00 | 0.00 | 99 | 1013.7 |
| 20260510041456 | 10 | 241 | 0.0 | 0.0 | 0.00 | 0.00 | 0.00 | 99 | 1013.6 |
| 20260510040954 | 10 | 216 | 0.0 | 0.0 | 0.00 | 0.00 | 0.00 | 99 | 1013.5 |
| 20260510040450 | 10 | 205 | 0.0 | 0.0 | 0.00 | 0.00 | 0.00 | 99 | 1013.6 |
| 20260510035946 | 10 | 210 | 0.0 | 0.0 | 0.00 | 0.86 | 0.86 | 99 | 1013.6 |
| 20260510035443 | 10 | 92 | 0.0 | 0.0 | 0.00 | 0.86 | 0.86 | 99 | 1013.4 |
| 20260510034942 | 10 | 215 | 0.0 | 0.0 | 0.00 | 0.86 | 0.86 | 99 | 1013.4 |
| 20260510034441 | 10 | 224 | 0.0 | 0.0 | 0.00 | 0.86 | 0.86 | 99 | 1013.1 |
| 20260510033937 | 10 | 231 | 0.0 | 0.0 | 0.00 | 0.86 | 0.86 | 99 | 1013.1 |
| 20260510033433 | 10 | 211 | 0.0 | 0.0 | 0.00 | 0.86 | 0.86 | 99 | 1013.2 |
| 20260510032930 | 10 | 223 | 0.0 | 0.0 | 0.00 | 0.86 | 0.86 | 99 | 1013.4 |
| 20260510032427 | 10 | 198 | 0.0 | 0.0 | 0.00 | 0.86 | 0.86 | 99 | 1013.4 |
| 20260510031922 | 10 | 224 | 0.0 | 0.0 | 0.00 | 0.86 | 0.86 | 99 | 1013.6 |
| 20260510031418 | 10 | 211 | 0.0 | 0.0 | 0.00 | 0.86 | 0.86 | 99 | 1013.5 |
| 20260510030913 | 10 | 226 | 0.0 | 0.0 | 0.00 | 0.86 | 0.86 | 99 | 1013.3 |
| 20260510030409 | 10 | 216 | 0.0 | 0.0 | 0.00 | 0.86 | 0.86 | 99 | 1013.5 |
| 20260510025907 | 10 | 161 | 0.0 | 0.0 | 0.00 | 0.86 | 0.86 | 99 | 1013.6 |
| 20260510025404 | 10 | 259 | 0.0 | 0.0 | 0.00 | 0.86 | 0.86 | 99 | 1013.6 |
| 20260510024901 | 10 | 209 | 0.0 | 0.0 | 0.00 | 0.86 | 0.86 | 99 | 1013.6 |
| 20260510024357 | 10 | 221 | 0.0 | 0.0 | 0.00 | 0.86 | 0.86 | 99 | 1013.6 |
| 20260510023853 | 10 | 207 | 0.0 | 0.0 | 0.00 | 0.86 | 0.86 | 99 | 1013.7 |
| 20260510023351 | 10 | 210 | 0.0 | 0.0 | 0.00 | 0.86 | 0.86 | 99 | 1013.7 |
| 20260510022848 | 10 | 226 | 0.0 | 0.0 | 0.00 | 0.86 | 0.86 | 99 | 1013.7 |
| 20260510022347 | 10 | 244 | 0.0 | 0.0 | 0.00 | 0.86 | 0.86 | 99 | 1013.7 |
| 20260510021845 | 10 | 248 | 0.0 | 0.0 | 0.00 | 0.86 | 0.86 | 99 | 1013.7 |
| 20260510021344 | 10 | 248 | 0.0 | 0.0 | 0.00 | 0.86 | 0.86 | 99 | 1013.5 |
| 20260510020840 | 10 | 248 | 0.0 | 0.0 | 0.00 | 0.86 | 0.86 | 99 | 1013.6 |
| 20260510020335 | 10 | 225 | 0.0 | 0.0 | 0.00 | 0.86 | 0.86 | 99 | 1013.5 |
| 20260510015831 | 10 | 225 | 0.0 | 0.0 | 0.00 | 0.86 | 0.86 | 99 | 1013.4 |
| 20260510015327 | 10 | 225 | 0.0 | 0.0 | 0.00 | 0.86 | 0.86 | 99 | 1013.4 |
| 20260510014822 | 10 | 246 | 0.0 | 0.0 | 0.00 | 0.86 | 0.86 | 99 | 1013.4 |
| 20260510014320 | 10 | 237 | 0.0 | 0.0 | 0.00 | 0.86 | 0.86 | 99 | 1013.6 |
| 20260510013816 | 10 | 199 | 0.0 | 0.0 | 0.00 | 0.86 | 0.86 | 99 | 1013.4 |
| 20260510013312 | 10 | 219 | 0.0 | 0.0 | 0.00 | 0.86 | 0.86 | 99 | 1013.2 |
| 20260510012807 | 10 | 215 | 0.0 | 0.0 | 0.00 | 0.86 | 0.86 | 99 | 1013.2 |
| 20260510012307 | 10 | 215 | 0.0 | 0.0 | 0.00 | 0.86 | 0.86 | 99 | 1013.3 |
| 20260510011801 | 10 | 243 | 0.0 | 0.0 | 0.00 | 0.86 | 0.86 | 99 | 1013.3 |
| 20260510011257 | 10 | 246 | 0.0 | 0.0 | 0.00 | 0.86 | 0.86 | 99 | 1013.0 |
| 20260510010754 | 9 | 211 | 0.0 | 0.0 | 0.00 | 0.86 | 0.86 | 99 | 1013.1 |
| 20260510010250 | 9 | 210 | 0.0 | 0.0 | 0.00 | 0.86 | 0.86 | 99 | 1013.0 |
| 20260510005748 | 9 | 213 | 0.0 | 0.0 | 0.00 | 0.86 | 0.86 | 99 | 1012.9 |
| 20260510005244 | 10 | 213 | 0.0 | 0.0 | 0.00 | 0.86 | 0.86 | 99 | 1013.0 |
| 20260510004742 | 10 | 213 | 0.0 | 0.0 | 0.00 | 0.86 | 0.86 | 99 | 1013.0 |
| 20260510004239 | 10 | 238 | 0.0 | 0.0 | 0.00 | 0.86 | 0.86 | 99 | 1013.0 |
| 20260510003736 | 10 | 220 | 0.0 | 0.0 | 0.00 | 0.86 | 0.86 | 99 | 1012.9 |
| 20260510003233 | 10 | 209 | 0.0 | 0.0 | 0.00 | 0.86 | 0.86 | 99 | 1012.8 |
| 20260510002731 | 10 | 203 | 0.0 | 0.0 | 0.00 | 0.86 | 0.86 | 99 | 1013.0 |
| 20260510002229 | 10 | 215 | 0.0 | 0.0 | 0.00 | 0.86 | 0.86 | 99 | 1012.6 |
| 20260510001725 | 10 | 241 | 0.0 | 0.0 | 0.00 | 0.86 | 0.86 | 99 | 1012.6 |
| 20260510001224 | 10 | 238 | 0.0 | 0.0 | 0.00 | 0.86 | 0.86 | 99 | 1012.6 |
| 20260510000720 | 10 | 210 | 0.0 | 0.0 | 0.00 | 0.86 | 0.86 | 99 | 1012.5 |
| 20260510000219 | 10 | 266 | 0.0 | 0.0 | 0.00 | 0.86 | 0.86 | 99 | 1012.4 |
| 20260509235714 | 10 | 215 | 0.0 | 0.0 | 0.00 | 0.86 | 0.86 | 99 | 1012.6 |
| 20260509235210 | 10 | 213 | 0.0 | 0.0 | 0.00 | 0.86 | 0.86 | 99 | 1012.6 |
| 20260509234706 | 10 | 209 | 0.0 | 0.0 | 0.00 | 0.86 | 0.86 | 99 | 1012.5 |
| 20260509234204 | 10 | 301 | 0.0 | 0.0 | 0.00 | 0.86 | 0.86 | 99 | 1012.4 |
| 20260509233702 | 10 | 229 | 0.0 | 0.0 | 0.00 | 0.86 | 0.86 | 99 | 1012.8 |
| 20260509233159 | 10 | 224 | 0.0 | 0.0 | 0.00 | 0.86 | 0.86 | 99 | 1012.6 |
| 20260509232655 | 10 | 214 | 0.0 | 0.0 | 0.00 | 0.86 | 0.86 | 99 | 1012.5 |
| 20260509232152 | 10 | 203 | 0.0 | 0.0 | 0.00 | 0.86 | 0.86 | 99 | 1012.6 |
| 20260509231649 | 10 | 225 | 0.0 | 0.0 | 0.00 | 0.86 | 0.86 | 99 | 1012.7 |
| 20260509231146 | 10 | 166 | 1.6 | 1.6 | 0.00 | 0.86 | 0.86 | 99 | 1012.9 |
| 20260509230643 | 10 | 217 | 0.0 | 1.6 | 0.00 | 0.86 | 0.86 | 99 | 1012.6 |
| 20260509230140 | 10 | 219 | 0.0 | 0.0 | 0.00 | 0.86 | 0.86 | 99 | 1012.7 |
| 20260509225636 | 10 | 159 | 0.0 | 0.0 | 0.00 | 0.86 | 0.86 | 99 | 1012.6 |
| 20260509225131 | 10 | 40 | 0.0 | 1.6 | 0.00 | 0.86 | 0.86 | 99 | 1012.9 |
| 20260509224627 | 10 | 184 | 0.0 | 0.0 | 0.00 | 0.86 | 0.86 | 99 | 1012.7 |
| 20260509224124 | 10 | 209 | 0.0 | 0.0 | 0.00 | 0.86 | 0.86 | 99 | 1012.7 |
| 20260509223621 | 10 | 220 | 0.0 | 0.0 | 0.18 | 0.86 | 0.86 | 99 | 1012.7 |
| 20260509223119 | 10 | 216 | 0.0 | 0.0 | 0.18 | 0.86 | 0.86 | 99 | 1012.6 |
| 20260509222614 | 10 | 223 | 0.0 | 0.0 | 0.13 | 0.84 | 0.84 | 99 | 1012.8 |
| 20260509222110 | 10 | 203 | 0.0 | 0.0 | 0.13 | 0.84 | 0.84 | 99 | 1012.9 |
| 20260509221606 | 10 | 241 | 0.0 | 0.0 | 0.13 | 0.84 | 0.84 | 99 | 1013.0 |
| 20260509221102 | 10 | 195 | 0.0 | 0.0 | 0.00 | 0.81 | 0.81 | 99 | 1012.7 |
| 20260509220558 | 10 | 71 | 0.0 | 0.0 | 0.00 | 0.81 | 0.81 | 99 | 1013.0 |
| 20260509220055 | 10 | 208 | 0.0 | 0.0 | 0.00 | 0.81 | 0.81 | 99 | 1013.2 |
| 20260509215550 | 10 | 208 | 0.0 | 0.0 | 0.18 | 0.81 | 0.81 | 99 | 1013.2 |
| 20260509215048 | 10 | 206 | 0.0 | 0.0 | 0.18 | 0.81 | 0.81 | 99 | 1013.4 |
| 20260509214545 | 10 | 227 | 0.0 | 0.0 | 0.13 | 0.79 | 0.79 | 99 | 1013.4 |
| 20260509214042 | 10 | 218 | 0.0 | 0.0 | 0.13 | 0.79 | 0.79 | 99 | 1013.3 |
| 20260509213538 | 10 | 166 | 0.0 | 0.0 | 0.00 | 0.76 | 0.76 | 99 | 1013.5 |
| 20260509213035 | 10 | 121 | 0.0 | 0.0 | 0.18 | 0.76 | 0.76 | 99 | 1013.3 |
| 20260509212532 | 10 | 213 | 0.0 | 0.0 | 0.36 | 0.76 | 0.76 | 99 | 1013.5 |
| 20260509212029 | 10 | 175 | 0.0 | 0.0 | 0.48 | 0.74 | 0.74 | 99 | 1013.1 |
| 20260509211524 | 10 | 222 | 0.0 | 0.0 | 0.43 | 0.71 | 0.71 | 99 | 1013.2 |
| 20260509211021 | 10 | 98 | 3.2 | 3.2 | 0.43 | 0.66 | 0.66 | 99 | 1013.3 |
| 20260509210518 | 10 | 234 | 0.0 | 0.0 | 0.79 | 0.64 | 0.64 | 99 | 1013.5 |
| 20260509210014 | 10 | 264 | 0.0 | 0.0 | 0.61 | 0.58 | 0.58 | 99 | 1013.5 |
| 20260509205509 | 10 | 240 | 0.0 | 0.0 | 0.30 | 0.51 | 0.51 | 99 | 1013.8 |
| 20260509205005 | 10 | 245 | 0.0 | 0.0 | 0.36 | 0.48 | 0.48 | 99 | 1013.4 |
| 20260509204501 | 10 | 245 | 0.0 | 0.0 | 0.30 | 0.46 | 0.46 | 99 | 1013.3 |
| 20260509203957 | 10 | 242 | 0.0 | 0.0 | 0.13 | 0.43 | 0.43 | 99 | 1013.4 |
| 20260509203453 | 10 | 253 | 6.4 | 6.4 | 0.18 | 0.41 | 0.41 | 99 | 1013.4 |
| 20260509202951 | 10 | 226 | 1.6 | 1.6 | 0.18 | 0.41 | 0.41 | 99 | 1013.3 |
| 20260509202447 | 11 | 232 | 3.2 | 3.2 | 0.00 | 0.38 | 0.38 | 99 | 1013.1 |
| 20260509201942 | 11 | 243 | 0.0 | 0.0 | 0.13 | 0.38 | 0.38 | 99 | 1013.4 |
| 20260509201437 | 11 | 246 | 0.0 | 0.0 | 0.13 | 0.38 | 0.38 | 99 | 1013.4 |
| 20260509200935 | 11 | 250 | 0.0 | 0.0 | 0.00 | 0.36 | 0.36 | 99 | 1013.5 |
| 20260509200434 | 11 | 251 | 0.0 | 0.0 | 0.00 | 0.36 | 0.36 | 99 | 1013.5 |
| 20260509195931 | 11 | 246 | 0.0 | 0.0 | 0.00 | 0.36 | 0.36 | 99 | 1013.6 |
| 20260509195427 | 11 | 245 | 0.0 | 0.0 | 0.18 | 0.36 | 0.36 | 99 | 1013.5 |
| 20260509194927 | 11 | 250 | 0.0 | 0.0 | 0.18 | 0.36 | 0.36 | 99 | 1013.6 |
| 20260509194422 | 11 | 253 | 0.0 | 0.0 | 0.00 | 0.33 | 0.33 | 99 | 1013.7 |
| 20260509193920 | 11 | 255 | 0.0 | 0.0 | 0.13 | 0.33 | 0.33 | 99 | 1013.5 |
| 20260509193419 | 11 | 259 | 3.2 | 3.2 | 0.13 | 0.33 | 0.33 | 99 | 1013.5 |
| 20260509192916 | 11 | 261 | 3.2 | 3.2 | 0.18 | 0.30 | 0.30 | 98 | 1013.8 |
| 20260509192412 | 11 | 244 | 0.0 | 1.6 | 0.18 | 0.30 | 0.30 | 98 | 1013.9 |
| 20260509191907 | 11 | 251 | 1.6 | 4.8 | 0.13 | 0.28 | 0.28 | 98 | 1013.9 |
| 20260509191403 | 11 | 266 | 6.4 | 6.4 | 0.30 | 0.28 | 0.28 | 99 | 1014.2 |
| 20260509190859 | 11 | 249 | 0.0 | 0.0 | 0.30 | 0.25 | 0.25 | 99 | 1014.1 |
| 20260509190356 | 11 | 245 | 1.6 | 1.6 | 0.30 | 0.23 | 0.23 | 98 | 1014.3 |
| 20260509185854 | 11 | 258 | 3.2 | 4.8 | 0.30 | 0.20 | 0.20 | 98 | 1014.0 |
| 20260509185350 | 12 | 282 | 0.0 | 0.0 | 0.13 | 0.18 | 0.18 | 97 | 1013.9 |
| 20260509184848 | 12 | 244 | 0.0 | 0.0 | 0.18 | 0.15 | 0.15 | 96 | 1013.7 |
| 20260509184344 | 12 | 246 | 0.0 | 0.0 | 0.36 | 0.15 | 0.15 | 94 | 1013.8 |
| 20260509183841 | 12 | 252 | 0.0 | 0.0 | 0.18 | 0.13 | 0.13 | 92 | 1013.6 |
| 20260509183336 | 13 | 226 | 0.0 | 0.0 | 0.00 | 0.10 | 0.10 | 90 | 1013.8 |
| 20260509182832 | 13 | 245 | 0.0 | 0.0 | 0.00 | 0.10 | 0.10 | 88 | 1013.5 |
| 20260509182329 | 13 | 244 | 0.0 | 0.0 | 0.00 | 0.10 | 0.10 | 89 | 1013.7 |
| 20260509181826 | 13 | 242 | 0.0 | 0.0 | 0.00 | 0.10 | 0.10 | 88 | 1013.3 |
| 20260509181318 | 13 | 228 | 0.0 | 0.0 | 0.00 | 0.10 | 0.10 | 88 | 1013.4 |
| 20260509180815 | 13 | 263 | 0.0 | 0.0 | 0.00 | 0.10 | 0.10 | 87 | 1013.4 |